Temperature
21 20 20 20 20 21 21 21 21 20 20 20 20 20 20 20 20 20 20 19 19 19 19 19 19 19 19 19 19 19 19 19 19 18 18 18 18 18 17 17 17 17 17
22 21 20 20 21 21 21 21 21 21 21 20 20 20 20 20 20 20 20 20 20 20 20 19 19 19 19 19 19 19 19 19 19 18 18 18 18 18 18 17 17 17 17
22 21 21 21 21 21 21 21 21 21 21 21 21 20 20 20 20 20 20 20 20 20 20 20 20 20 20 20 20 19 19 19 19 18 18 18 17 17 17 18 18 17 17
22 21 21 21 21 21 21 21 21 21 21 21 21 21 20 20 20 20 20 20 20 20 20 20 20 20 20 20 20 19 19 19 19 19 18 18 18 17 17 18 18 18 18
22 21 21 21 21 21 21 21 21 21 21 21 21 20 20 20 20 20 20 20 20 20 20 20 20 20 20 20 19 19 19 19 19 19 18 18 18 18 18 18 18 18 18
22 22 21 21 21 21 21 21 21 21 21 21 21 20 20 20 20 20 20 20 20 20 20 20 20 20 20 20 19 19 19 19 18 18 18 18 18 18 18 18 18 18 18
22 22 21 21 21 21 21 21 21 21 21 21 21 20 20 20 20 20 20 20 20 20 20 20 20 20 19 19 19 19 19 18 18 18 18 18 18 18 17 17 18 18 18
23 22 21 21 21 21 21 21 21 21 21 21 21 21 20 20 20 20 20 20 20 20 20 19 19 19 19 19 19 19 19 18 18 18 18 18 18 17 17 17 17 17 18
22 22 21 21 21 21 21 21 21 21 21 21 21 20 20 20 20 20 20 20 19 19 19 19 19 19 19 19 19 19 19 18 18 18 18 18 18 18 17 17 17 17 17
22 22 21 21 21 21 21 21 21 21 21 20 20 20 20 20 20 20 19 19 19 19 19 19 19 19 19 19 18 18 18 18 18 18 18 18 18 18 18 17 17 17 17
22 21 21 21 21 21 21 20 20 20 20 20 20 20 20 20 20 19 19 19 19 19 19 19 18 18 18 18 18 18 18 18 18 18 18 18 18 18 18 17 17 17 17
22 21 21 21 21 20 20 20 20 20 20 20 20 20 20 19 19 19 19 19 19 18 18 18 18 18 18 18 18 18 18 18 18 18 18 18 18 18 18 18 17 17 17
22 21 21 20 20 20 20 20 20 20 20 20 19 19 19 19 19 19 19 18 18 18 18 18 18 18 18 18 18 18 18 18 18 18 18 18 18 18 18 18 18 17 17
22 21 20 20 20 19 19 19 19 19 19 19 19 19 19 19 19 18 18 18 18 18 18 18 18 18 18 18 18 18 18 18 18 18 18 18 18 18 18 18 18 18 18
21 21 21 20 20 19 19 19 19 19 19 19 19 19 19 18 18 18 18 18 18 18 18 18 18 18 18 18 18 18 18 18 18 18 18 18 18 18 18 18 18 18 18
21 21 21 20 20 19 19 19 19 19 19 19 19 19 19 18 18 18 18 18 18 18 18 17 17 17 17 17 17 17 18 18 18 18 18 18 18 18 18 18 18 18 18
21 20 20 20 20 19 19 19 19 19 19 19 19 18 18 18 18 18 18 18 18 18 17 17 17 17 17 17 17 17 17 17 17 18 18 18 18 18 18 18 18 18 18
19 19 19 19 19 19 18 18 18 18 18 18 18 18 18 18 18 18 18 18 18 17 17 17 17 17 17 17 17 17 17 17 17 17 17 18 18 18 18 18 18 18 18
19 18 18 18 18 18 18 18 17 17 17 17 17 17 17 17 18 18 18 18 18 17 17 17 17 17 17 17 17 17 17 17 17 17 17 17 17 18 18 18 18 18 18
18 18 17 17 17 17 17 16 16 17 17 17 17 17 17 17 18 18 18 18 18 18 17 17 17 17 17 16 17 17 17 17 17 17 17 17 17 17 17 17 17 18 18
17 17 17 17 17 17 16 16 16 16 16 16 16 16 17 17 17 18 18 18 18 18 18 17 17 17 17 17 17 17 17 17 17 17 17 17 17 17 17 17 17 17 18
17 17 17 17 17 16 16 16 16 16 16 16 16 16 16 17 17 17 18 18 18 18 18 18 18 17 17 17 16 17 17 17 17 16 16 16 16 16 17 17 17 17 17
17 17 17 16 17 16 16 16 16 16 16 16 16 16 16 17 17 17 17 18 18 18 18 18 18 17 17 17 17 16 16 16 16 16 16 16 16 16 16 17 17 17 17
16 17 16 16 17 17 16 16 16 16 15 15 16 16 16 16 17 17 17 17 17 17 17 17 17 17 17 17 17 16 16 16 16 16 16 16 16 16 16 16 16 17 17
16 16 16 16 17 16 16 16 16 15 15 15 15 15 16 16 16 16 16 16 16 16 17 17 17 17 17 17 16 16 16 16 15 15 15 16 16 16 15 16 16 16 17
16 16 16 16 16 16 16 16 15 15 15 15 15 15 15 15 15 15 15 15 15 15 16 16 16 16 16 16 16 16 16 15 15 15 14 15 15 16 15 15 16 16 16
Wind_Speed
10 12 21 21 20 19 19 18 18 19 19 19 19 19 19 19 18 17 16 15 13 12 11 10 10 10 10 10 11 12 12 13 13 13 13 13 13 13 13 14 14 13 15
15 17 22 22 21 20 19 19 18 18 18 18 18 18 18 18 17 17 16 14 13 12 11 10 10 9 9 10 10 11 11 12 12 12 12 12 12 12 13 13 12 11 14
16 17 21 22 21 20 19 19 18 18 18 18 17 17 17 17 17 16 15 14 13 12 11 10 10 9 9 9 9 10 10 10 11 11 10 8 9 11 12 12 13 13 13
15 15 19 22 21 20 19 19 18 17 17 17 16 16 16 16 16 15 14 13 12 12 11 10 9 9 9 9 9 9 9 9 9 9 7 6 5 10 12 12 13 13 13
13 14 19 23 22 21 19 18 18 17 16 16 15 15 15 15 14 14 13 12 11 11 10 10 9 9 9 9 8 8 8 8 8 7 6 5 3 8 11 12 13 13 13
13 14 19 24 22 21 20 19 18 17 16 16 15 15 14 14 13 13 12 12 11 10 10 10 9 9 9 8 8 8 8 8 7 5 5 5 5 7 10 12 13 13 14
13 12 18 24 23 22 20 19 18 17 16 16 15 15 14 14 13 13 12 12 11 11 11 10 10 10 9 9 9 8 8 8 6 4 4 5 7 10 11 12 14 14 14
15 11 15 23 23 22 21 19 18 18 17 16 15 15 15 14 14 13 13 13 12 12 12 11 11 11 11 10 10 9 9 9 7 6 6 7 9 11 14 15 15 16 16
12 10 10 16 20 21 20 19 18 17 17 16 16 15 15 14 14 14 13 13 13 13 12 12 12 12 12 12 11 11 11 11 8 6 6 7 8 11 14 16 17 17 17
10 10 8 10 12 14 16 18 18 17 17 16 16 16 15 15 15 14 14 14 14 14 14 14 14 14 13 13 13 13 12 11 10 9 8 8 10 11 13 16 18 19 19
12 11 9 8 8 10 11 14 16 16 16 16 15 16 15 13 12 12 14 14 15 15 15 16 16 16 15 15 15 15 14 11 10 9 9 11 13 13 14 16 19 21 21
15 13 10 9 7 7 9 9 9 10 11 12 11 12 12 10 11 12 12 15 16 16 17 18 18 17 16 13 14 15 12 12 11 11 11 14 15 15 16 16 18 21 22
9 10 9 8 6 5 3 3 4 6 6 8 9 10 9 8 9 11 9 12 13 14 13 14 15 13 13 11 11 12 12 12 11 12 13 16 17 17 16 16 17 19 22
7 7 6 6 5 5 3 2 2 3 4 5 9 10 9 6 6 7 7 9 9 9 8 9 8 10 11 12 12 11 11 11 11 12 13 17 18 18 17 16 17 18 21
8 8 7 7 5 4 3 2 2 3 4 6 8 10 10 6 7 4 6 7 8 8 7 6 6 6 6 7 8 8 9 10 12 12 12 16 18 17 17 16 16 17 19
10 10 9 9 7 4 2 2 3 4 6 6 7 10 11 10 7 6 6 5 6 7 7 6 5 5 4 4 5 6 7 8 10 11 12 13 15 16 17 16 15 16 17
9 9 9 8 7 6 4 5 4 3 3 3 5 9 10 11 9 7 6 5 5 6 6 4 3 2 3 3 4 5 5 6 7 9 11 11 12 14 16 16 15 17 17
6 6 5 5 5 4 4 4 4 3 3 2 4 7 10 11 11 6 5 6 5 4 3 3 2 2 2 3 3 4 4 4 6 8 9 10 10 11 13 15 16 17 18
5 5 4 3 3 1 1 2 3 3 3 2 4 5 7 8 9 6 6 5 5 3 3 3 2 2 3 3 4 4 4 4 5 6 7 8 10 11 11 13 15 17 18
6 5 4 2 2 2 1 2 2 2 2 2 3 4 6 6 8 6 5 5 5 4 3 3 3 2 2 2 2 3 3 4 4 5 6 6 7 9 10 10 10 12 16
7 6 4 2 2 2 1 1 2 2 1 2 3 3 4 5 6 5 5 5 5 5 5 5 3 2 2 1 0 2 3 2 2 2 3 3 3 5 6 7 8 9 10
7 6 5 3 3 2 1 1 1 1 1 1 2 2 3 4 5 5 5 5 5 4 5 5 4 3 2 2 2 0 2 3 2 2 1 1 2 2 3 5 6 7 9
5 5 5 4 4 4 3 1 1 2 2 2 2 2 3 3 2 2 3 4 5 5 5 6 5 5 4 2 2 3 2 2 2 2 2 2 2 2 3 4 5 6 7
2 3 4 3 4 4 4 4 4 3 2 2 2 3 4 5 5 4 2 2 3 4 5 5 6 4 5 3 2 2 2 2 1 2 3 2 3 4 4 5 5 6 6
2 2 1 1 3 3 4 5 5 3 1 0 1 4 5 5 5 5 3 2 2 2 4 4 5 6 5 5 4 3 2 1 2 3 3 3 3 4 4 5 5 4 5
3 2 2 1 0 0 2 3 4 4 2 1 2 2 2 2 2 4 4 4 3 2 3 4 5 6 6 6 5 4 4 3 3 4 5 4 4 4 4 4 3 3 4
Wind_Direction
167 165 168 160 154 149 147 144 140 138 137 138 139 142 146 148 150 153 154 155 154 153 150 145 140 134 130 127 125 125 125 125 127 129 131 132 131 130 126 122 120 123 124
156 162 167 162 156 152 149 146 144 143 142 142 143 145 149 152 154 156 157 157 157 156 153 149 146 142 138 135 133 132 132 133 136 137 137 138 140 139 134 129 128 131 129
150 160 165 162 158 153 151 149 148 148 147 147 147 150 153 155 158 159 160 160 161 160 157 155 153 150 146 143 141 140 140 142 144 144 138 135 146 149 145 141 141 138 134
148 157 162 163 159 156 154 153 153 153 152 152 153 155 158 160 163 165 166 166 165 165 164 163 162 159 155 152 150 149 148 150 151 145 129 132 147 158 156 152 151 147 144
147 156 165 165 162 159 157 158 158 158 159 159 161 163 165 166 168 170 171 172 173 172 172 172 171 168 166 164 163 162 162 162 164 150 149 158 154 164 165 163 161 157 154
151 157 168 166 165 163 161 162 163 165 167 169 170 172 173 175 177 178 179 181 183 184 184 183 183 181 180 179 178 179 180 182 180 154 166 185 195 190 181 177 174 170 166
154 160 171 168 168 166 166 167 169 172 175 178 179 181 183 184 186 187 189 191 193 195 196 197 197 195 195 196 196 196 198 202 192 192 203 212 217 214 205 196 190 184 179
158 160 171 171 171 170 171 173 175 178 182 185 187 189 192 194 195 196 199 201 204 206 208 209 209 209 208 209 210 210 211 215 215 213 223 227 228 222 217 211 204 196 190
157 159 168 172 174 175 176 178 181 184 188 192 196 198 201 203 205 207 209 212 215 217 220 222 223 223 222 222 223 224 224 225 223 214 226 229 231 227 223 218 212 206 200
158 164 165 166 169 174 180 185 187 191 195 199 203 206 209 212 215 218 219 223 226 228 230 232 233 233 233 232 233 235 236 238 234 227 231 236 239 236 232 226 220 214 208
172 175 169 163 162 168 176 190 195 200 204 207 212 215 217 220 225 229 231 232 236 239 240 241 240 239 239 238 238 239 241 238 234 234 232 237 241 242 241 236 229 220 215
181 182 179 172 162 161 181 192 200 207 212 214 217 223 223 221 226 234 241 243 244 248 249 249 247 244 242 240 240 241 239 235 234 237 237 238 239 241 243 241 236 227 221
175 179 183 180 168 166 173 181 202 213 219 222 222 226 230 228 230 237 242 250 254 257 257 255 253 244 236 232 233 234 236 237 237 239 241 240 239 240 241 241 239 232 228
155 169 164 165 163 172 173 199 219 224 228 233 232 228 228 230 232 233 236 242 246 249 254 253 245 239 234 231 231 235 236 237 238 238 243 245 243 242 243 241 238 237 233
148 151 148 144 147 164 185 207 222 217 226 236 237 230 227 229 237 233 237 241 243 243 244 246 240 237 234 235 236 239 241 240 242 239 242 246 248 246 246 245 241 237 235
151 149 147 146 145 144 177 230 233 231 225 223 231 235 231 230 231 233 238 239 240 238 237 235 232 230 230 228 238 240 243 244 246 245 245 247 250 250 248 246 241 236 235
148 148 151 152 146 153 186 226 239 244 248 229 234 239 235 232 232 226 230 238 235 235 231 226 225 221 230 231 245 252 249 248 249 249 250 250 251 249 248 248 244 242 239
121 132 140 146 143 169 197 224 232 227 227 234 242 243 236 232 230 220 222 231 229 221 209 201 190 194 222 233 249 259 256 255 255 256 254 253 252 252 251 250 248 246 245
84 100 104 101 108 146 231 270 251 234 244 253 247 247 244 237 227 214 219 221 212 200 201 199 188 186 205 227 247 254 256 258 261 262 256 253 251 250 251 255 254 251 250
55 70 73 77 84 50 355 294 290 286 266 252 245 247 245 236 225 211 210 207 193 188 193 188 183 186 200 218 257 272 273 270 265 259 259 260 258 256 255 256 257 257 253
41 43 42 43 56 62 296 304 354 327 304 276 263 251 251 246 229 214 211 196 189 190 193 183 169 175 191 172 187 315 314 291 276 262 263 259 264 269 267 262 258 255 256
42 34 44 44 44 32 334 302 274 292 288 262 289 297 283 263 244 224 208 202 196 190 188 183 169 163 178 168 157 115 340 342 344 353 326 285 306 306 300 289 270 258 252
49 40 38 27 48 38 23 31 19 24 13 10 348 335 323 316 303 291 247 219 203 194 198 197 183 174 181 190 184 163 166 236 306 321 328 330 324 314 312 309 295 282 265
26 59 54 29 47 44 52 68 73 71 53 9 354 0 355 9 16 9 325 258 231 217 213 209 196 186 169 184 196 207 191 170 188 306 313 317 316 303 309 308 305 298 283
340 13 34 31 56 57 76 95 101 99 117 281 25 25 19 10 12 11 1 341 291 251 241 227 204 199 190 182 179 175 182 192 199 220 275 306 314 293 292 297 300 301 303
285 274 259 266 312 125 112 117 128 131 133 92 38 29 8 349 350 357 1 355 335 298 264 248 230 214 209 200 190 184 178 180 190 201 237 270 293 292 297 297 301 308 315
Height
1495 1500 1504 1507 1510 1513 1515 1518 1520 1523 1525 1527 1528 1530 1531 1533 1534 1535 1536 1537 1539 1540 1541 1542 1543 1544 1545 1546 1546 1547 1548 1549 1549 1550 1551 1552 1553 1554 1555 1556 1557 1558 1559
1493 1499 1503 1507 1510 1513 1516 1518 1521 1523 1525 1527 1529 1531 1532 1534 1535 1536 1538 1539 1540 1541 1542 1543 1544 1545 1546 1547 1547 1548 1549 1550 1551 1551 1552 1553 1554 1556 1557 1558 1559 1560 1561
1494 1499 1503 1507 1511 1514 1516 1519 1521 1524 1526 1528 1530 1532 1533 1535 1536 1538 1539 1540 1541 1542 1543 1544 1545 1546 1547 1548 1548 1549 1550 1551 1552 1553 1554 1555 1556 1557 1558 1559 1560 1562 1563
1496 1500 1504 1508 1512 1515 1517 1520 1522 1525 1527 1529 1531 1533 1534 1536 1537 1539 1540 1541 1543 1544 1545 1546 1546 1547 1548 1549 1549 1550 1551 1552 1553 1554 1555 1556 1557 1558 1560 1561 1562 1563 1564
1497 1501 1505 1509 1512 1515 1518 1521 1523 1525 1528 1530 1532 1533 1535 1537 1538 1539 1541 1542 1543 1544 1545 1546 1547 1548 1549 1550 1550 1551 1552 1553 1554 1555 1556 1557 1558 1559 1561 1562 1563 1564 1565
1498 1502 1506 1509 1513 1516 1519 1521 1524 1526 1528 1530 1532 1534 1536 1537 1539 1540 1541 1543 1544 1545 1546 1547 1548 1549 1549 1550 1551 1552 1553 1554 1555 1556 1557 1558 1559 1560 1561 1562 1564 1565 1566
1499 1503 1507 1510 1514 1517 1520 1522 1524 1527 1529 1531 1533 1534 1536 1538 1539 1540 1542 1543 1544 1545 1546 1547 1548 1549 1549 1550 1551 1552 1553 1554 1555 1556 1557 1558 1559 1560 1561 1562 1564 1565 1567
1499 1503 1507 1511 1514 1517 1520 1523 1525 1527 1529 1531 1533 1535 1536 1538 1539 1540 1542 1543 1544 1545 1546 1547 1547 1548 1549 1550 1551 1551 1552 1553 1554 1555 1556 1557 1559 1560 1561 1562 1563 1565 1566
1501 1504 1507 1511 1514 1518 1521 1523 1525 1528 1529 1531 1533 1535 1536 1538 1539 1540 1541 1542 1543 1544 1545 1545 1546 1547 1548 1548 1549 1550 1551 1552 1552 1554 1555 1556 1557 1558 1560 1561 1562 1564 1565
1501 1504 1508 1511 1514 1518 1521 1523 1525 1527 1529 1531 1533 1534 1536 1537 1538 1539 1540 1541 1542 1542 1543 1544 1544 1545 1546 1546 1547 1548 1549 1550 1550 1551 1552 1554 1555 1556 1558 1559 1560 1562 1564
1500 1503 1507 1510 1514 1517 1520 1523 1525 1527 1529 1530 1532 1533 1535 1536 1537 1538 1539 1540 1540 1541 1541 1542 1543 1543 1544 1544 1545 1545 1546 1547 1548 1549 1549 1551 1552 1554 1555 1557 1559 1560 1562
1498 1502 1506 1510 1514 1517 1520 1522 1524 1526 1528 1529 1530 1532 1533 1534 1535 1536 1537 1538 1538 1539 1539 1540 1540 1541 1541 1541 1542 1543 1543 1544 1545 1546 1546 1548 1549 1550 1552 1554 1555 1557 1559
1499 1503 1507 1510 1514 1517 1519 1521 1523 1525 1526 1527 1529 1530 1532 1532 1533 1534 1535 1535 1536 1536 1537 1537 1538 1538 1538 1539 1539 1540 1540 1541 1541 1542 1543 1545 1546 1547 1549 1550 1552 1554 1556
1500 1503 1506 1510 1513 1516 1518 1520 1522 1523 1524 1525 1527 1528 1529 1530 1531 1532 1532 1533 1533 1533 1534 1534 1535 1535 1535 1536 1536 1536 1537 1537 1538 1538 1539 1541 1542 1543 1545 1546 1548 1550 1552
1500 1502 1505 1508 1511 1514 1516 1518 1519 1520 1521 1523 1524 1525 1526 1527 1528 1528 1529 1530 1530 1530 1530 1531 1531 1531 1532 1532 1532 1533 1533 1534 1535 1535 1536 1537 1538 1539 1541 1542 1544 1545 1547
1498 1500 1503 1505 1508 1510 1513 1515 1516 1516 1517 1517 1519 1521 1522 1523 1524 1525 1525 1526 1526 1526 1526 1526 1527 1527 1527 1528 1528 1529 1529 1530 1531 1531 1532 1533 1534 1535 1537 1538 1539 1541 1543
1498 1500 1502 1504 1505 1507 1509 1511 1511 1511 1512 1511 1514 1516 1518 1519 1519 1521 1521 1522 1522 1522 1522 1522 1522 1523 1523 1524 1524 1524 1525 1526 1526 1527 1528 1529 1530 1531 1532 1533 1535 1536 1538
1498 1499 1501 1502 1503 1504 1505 1504 1504 1505 1506 1507 1509 1511 1513 1514 1515 1516 1517 1518 1519 1519 1518 1518 1518 1519 1519 1519 1520 1520 1521 1521 1522 1522 1523 1524 1524 1525 1526 1528 1529 1531 1532
1498 1498 1500 1501 1501 1501 1501 1499 1498 1499 1501 1502 1504 1506 1508 1509 1511 1513 1514 1515 1516 1515 1515 1515 1515 1515 1515 1516 1516 1516 1516 1516 1517 1517 1518 1519 1519 1520 1520 1522 1523 1524 1526
1498 1498 1500 1500 1499 1498 1497 1495 1493 1494 1495 1497 1499 1502 1504 1506 1507 1509 1510 1511 1512 1512 1512 1512 1512 1512 1512 1512 1512 1512 1512 1512 1512 1513 1513 1514 1514 1515 1515 1516 1517 1518 1520
1500 1499 1499 1499 1496 1496 1494 1493 1491 1491 1492 1493 1496 1498 1500 1502 1504 1506 1507 1508 1508 1509 1510 1510 1509 1509 1509 1509 1509 1509 1508 1508 1508 1509 1509 1510 1510 1511 1511 1511 1512 1513 1514
1500 1500 1498 1497 1495 1494 1494 1493 1492 1492 1492 1493 1495 1496 1498 1499 1500 1502 1503 1504 1506 1506 1507 1507 1507 1507 1506 1507 1507 1506 1506 1506 1505 1506 1507 1507 1507 1507 1507 1507 1508 1509 1509
1500 1499 1498 1497 1495 1495 1494 1493 1492 1492 1492 1492 1493 1494 1495 1496 1496 1498 1499 1501 1502 1503 1503 1503 1504 1504 1504 1504 1504 1505 1504 1503 1503 1504 1504 1504 1504 1504 1504 1504 1504 1504 1505
1501 1499 1499 1498 1496 1495 1494 1493 1492 1491 1491 1491 1491 1491 1491 1491 1492 1493 1494 1496 1497 1498 1499 1499 1500 1501 1501 1501 1501 1501 1502 1501 1501 1501 1501 1501 1501 1501 1500 1499 1500 1500 1501
1502 1500 1499 1498 1496 1495 1494 1493 1492 1491 1490 1489 1488 1487 1488 1488 1488 1488 1489 1490 1491 1492 1493 1494 1495 1496 1497 1497 1497 1498 1498 1498 1498 1499 1498 1498 1498 1497 1496 1496 1495 1496 1497
1502 1501 1499 1497 1496 1494 1492 1491 1490 1489 1488 1487 1485 1484 1484 1484 1484 1484 1484 1484 1484 1485 1486 1488 1489 1490 1491 1492 1492 1494 1494 1495 1495 1495 1495 1494 1493 1493 1493 1492 1492 1492 1493